ROBUSTA-1F (MTCUBE 2)

Last updated on Thu Nov 21 2024 00:03:40 GMT+0000 (Coordinated Universal Time)

1 53109U 22080E 24325.50888608 -.00000003 00000+0 00000+0 0 9991 2 53109 70.1141 137.7690 0008366 54.9244 305.2199 6.42584295 55204
UTC large
Height (km)
Speed (km/s)
/
Latitude / Longitude
Inclination (degrees)
Orbital Period (minutes)
Azimuth
Elevation
Range (km)
Doppler Factor

Next 0 passes for location: London (51.5072 / 0.1276)

Sorry there are no passes over London.